Volver al catálogo

STARLINK-35419

ActivoComunicacionesVLEO
NORAD 66559·PAYLOAD·🇺🇸 United States

Lanzado Nov 21, 2025 desde Cape Canaveral Space Force Station

Loading…

Próximos Pases (próximas 24 horas)

TLE

ActualizadoSource: CelesTrak SupGP

Época: Sep 14, 2026, 21:05 UTC

1 66559C 25268C   26257.87895833  .00008999  00000+0  32590-3 0  2570
2 66559  43.0036 358.7113 0001818 273.8711  55.9702 15.27576769    18

Sigue STARLINK-35419 en tiempo real con AllMySat

Download on the App Store